Volver al catálogo

STARLINK-6309

ActivoComunicacionesVLEO
NORAD 56535·PAYLOAD·🇺🇸 United States

Lanzado May 14, 2023 desde Cape Canaveral Space Force Station

Loading…

Próximos Pases (próximas 24 horas)

TLE

ActualizadoSource: CelesTrak SupGP

Época: Sep 14, 2026, 20:52 UTC

1 56535C 23065AJ  26257.86993056  .00024829  00000+0  89950-3 0  2573
2 56535  42.9990 238.2538 0001465 258.8564 292.3657 15.27559014    18

Sigue STARLINK-6309 en tiempo real con AllMySat

Download on the App Store